Starlink 3696

operational
NORAD ID: 51965 Int'l Des: 2022-025 Owner: SPXS Country: US Constellation: starlink
LEOCIRCULARSTARLINK_TYPE

Über Starlink 3696

Beschreibung wird geladen...

Live-Position

3D-Globus wird geladen...

Nächste Überflüge

Höhenverlauf

Altitude vs Time

uPlot chart will show altitude changes over time

Zweizeiliger Elementsatz

1 51965U 22025K 25351.85670720 -.00000073 00000-0 13990-4 0 9995
2 51965 53.0559 43.2063 0001339 92.2592 267.8550 15.06396155208518
Epoch: 17. Dez. 2025 • Age: 20 hours

Aktueller Status

Höhe 565.4 km
Geschwindigkeit 7.58 km/s
Subsatellitenpunkt -50.12°S, 56.44°W
Startdatum 9. März 2022
Alter 3.7 years
Typ internet

Technische Details

Klassifizierung Payload
Masse 297.00 kg
Trockenmasse 275.00 kg
Gesamtmasse 297.00 kg
Länge 0.20 m
Durchmesser 2.80 m
Spannweite 9.00 m
Form Box + pan
Hersteller SPXS
Bus-Typ Starlink
Phasenstatus In Orbit
Besitzer/Staat SPXS/US

Große Konstellationen

Loading constellations...